Location: Boulder Knolls Observatory
(33.2250°N, 117.1147°W)
Time: 18:02:40
(UTC-08:00)

N. Korean satellite - Visible Passes

Search period start: 19 February 2018 00:00
Search period end: 01 March 2018 00:00
Orbit: 459 x 514 km, 97.2° (Epoch: 19 February)

Date Brightness Start Highest point End Pass type
(mag) Time Alt. Az. Time Alt. Az. Time Alt. Az.
19 Feb 8.0 18:08:17 10° S 18:11:32 42° W 18:14:50 10° NNW visible
20 Feb 9.9 05:39:49 10° NE 05:42:32 19° E 05:45:15 10° SE visible
22 Feb 9.6 18:31:15 10° SW 18:33:51 20° W 18:36:28 10° NW visible
23 Feb 7.9 18:06:44 10° S 18:10:02 44° W 18:13:22 10° NNW visible
24 Feb 10.0 05:38:22 10° NE 05:41:03 19° E 05:43:45 10° SE visible
26 Feb 9.5 18:29:38 10° SSW 18:32:18 21° W 18:35:00 10° NW visible
27 Feb 7.8 18:05:09 10° S 18:08:28 46° W 18:11:51 10° NNW visible
28 Feb 10.0 05:36:52 10° NE 05:39:31 18° E 05:42:10 10° SE visible
